Retour au catalogue

STARLINK-37263

ActifCommunicationsVLEO
NORAD 68544·PAYLOAD·🇺🇸 United States

Lancé Apr 2, 2026 depuis Cape Canaveral Space Force Station

Loading…

Prochains Passages (prochaines 24 heures)

TLE

FraisSource: CelesTrak SupGP

Époque: Sep 15, 2026, 03:23 UTC

1 68544C 26070C   26258.14145833 -.00048769  00000+0 -14411-2 0  2580
2 68544  53.1586 198.9903 0001389  82.7843 206.7740 15.34410701    12

Suivez STARLINK-37263 en temps réel avec AllMySat

Download on the App Store